Location: Newark
(43.6317°N, 70.2728°W)
Time: 12:18:22
(UTC+00:00)

Envisat - Visible Passes

Search period start: 20 September 2019 00:00
Search period end: 30 September 2019 00:00
Orbit: 764 x 766 km, 98.1° (Epoch: 20 September)

Date Brightness Start Highest point End Pass type
(mag) Time Alt. Az. Time Alt. Az. Time Alt. Az.
21 Sep 6.2 00:28:08 10° WSW 00:29:47 11° W 00:31:25 10° WNW visible
21 Sep 5.4 23:48:25 10° SSW 23:52:35 25° W 23:56:48 10° NW visible
22 Sep 3.9 23:10:40 10° S 23:15:37 55° W 23:20:38 10° NNW visible
24 Sep 6.0 00:15:34 10° WSW 00:18:22 15° W 00:21:11 10° NW visible
24 Sep 5.0 23:36:45 10° SSW 23:41:15 32° W 23:45:48 10° NNW visible
25 Sep 3.4 22:59:18 10° S 23:04:20 70° WSW 23:09:26 10° NNW visible
27 Sep 5.8 00:03:29 10° SW 00:07:00 19° W 00:10:31 10° NW visible
27 Sep 4.5 23:25:11 10° SSW 23:29:56 40° W 23:34:43 10° NNW visible
28 Sep 3.1 22:48:00 10° SSE 22:53:05 87° WSW 22:58:12 10° NNW visible
29 Sep 6.4 00:32:09 10° W 00:32:50 10° W 00:33:31 10° WNW visible
29 Sep 5.5 23:51:37 10° SW 23:55:37 23° W 23:59:40 10° NW visible
